User: anonymous   Login
Location: Chaumontel
(49.1247°N, 2.4324°E)
Time: 03:59:26
(UTC+00:00)
Language:

Cosmos 1340 - Orbit

View from above orbital plane
View from above orbital plane
View from above satellite
View from above satellite

Ground track
Ground track

The orbit data is extracted from the following two-line orbital elements,

1 13067U 82013A   23150.37101875  .00009793  00000-0  33716-3 0  9995
2 13067  81.1810 111.9420 0005269  64.5568 295.6212 15.29909819257949
Epoch (UTC): 30 May 2023 08:54:16
Eccentricity: 0.0005269
inclination: 81.1810°
perigee height: 472 km
apogee height: 479 km
right ascension of ascending node: 111.9420°
argument of perigee: 64.5568°
revolutions per day: 15.29909819
mean anomaly at epoch: 295.6212°
orbit number at epoch: 25794

The dashed part of the orbit path shows where the satellite is in the earth's shadow,  

DLR